Branson, MO

2:55 AM CST on November 21, 2017 (GMT -0600)
Branson

Weather History for KBBG - May, 2013

Change the Weather History Date:

Friday, May 3, 2013

  Actual Average (KHRO) Record (KHRO)
Temperature  
Mean Temperature 34 °F -  
Max Temperature 37 °F 70 °F 90 °F (1952)
Min Temperature 32 °F 49 °F 30 °F (1929)
Degree Days  
Heating Degree Days 30    
Moisture  
Dew Point 33 °F    
Average Humidity 96    
Maximum Humidity 100    
Minimum Humidity 87    
Precipitation  
Precipitation 0.73 in - - ()
Sea Level Pressure  
Sea Level Pressure 30.05 in    
Wind  
Wind Speed 10 mph (NW)    
Max Wind Speed 15 mph    
Max Gust Speed 26 mph    
Visibility 4 miles    
Events Rain , Snow    
Averages and records for this station are not official NWS values.
T = Trace of Precipitation, MM = Missing Value Source: NWS Daily Summary

Daily Weather History Graph

Daily Weather History Graph

Search for Another Location

Airport or City:

Trip Planner

Search our weather history database for the weather conditions in past years. The results will help you decide how hot, cold, wet, or windy it might be!

Date:

Astronomy

May. 03, 2013 Rise Set
Actual Time 6:16 AM CDT 8:02 PM CDT
Civil Twilight 5:49 AM CDT 8:30 PM CDT
Nautical Twilight 5:15 AM CDT 9:04 PM CDT
Astronomical Twilight 4:39 AM CDT 9:40 PM CDT
Moon 2:31 AM CDT (5/3) 2:07 PM CDT (5/3)
Length of Visible Light 14h 41m
Length of Day
13h 46m
Last Quarter, 37% of the Moon is Illuminated
May 3
Last Quarter
May 9
New
May 17
First Quarter
May 24
Full
May 31
Last Quarter

Hourly Weather History & Observations

Time (CDT) Temp. Windchill Dew Point Humidity Pressure Visibility Wind Dir Wind Speed Gust Speed Precip Events Conditions
12:15 AM 35.6 °F 27.5 °F 33.8 °F 93% 30.20 in 1.8 mi NW 11.5 mph 19.6 mph 0.06 in Rain Rain
12:35 AM 35.6 °F 27.1 °F 32.0 °F 87% 30.19 in 2.5 mi NW 12.7 mph 21.9 mph 0.14 in Rain Rain
12:55 AM 33.8 °F 24.8 °F 32.0 °F 93% 30.17 in 2.5 mi NW 12.7 mph - 0.23 in Rain Rain
1:15 AM 33.8 °F 25.3 °F 32.0 °F 93% 30.17 in 6.0 mi NW 11.5 mph 19.6 mph 0.01 in Rain Light Rain
1:35 AM 33.8 °F 25.3 °F 32.0 °F 93% 30.16 in 4.0 mi NW 11.5 mph 16.1 mph 0.04 in Rain Rain
1:55 AM 33.8 °F 25.3 °F 32.0 °F 93% 30.15 in 3.0 mi NW 11.5 mph 17.3 mph 0.14 in Rain Rain
2:15 AM 32.0 °F 23.0 °F 32.0 °F 100% 30.15 in 7.0 mi NW 11.5 mph - N/A Rain Light Rain
2:35 AM 32.0 °F 23.0 °F 32.0 °F 100% 30.13 in 5.0 mi NW 11.5 mph - 0.02 in Rain Light Rain
2:55 AM 32.0 °F 23.6 °F 32.0 °F 100% 30.12 in 2.0 mi NW 10.4 mph - 0.06 in Rain Rain
3:15 AM 32.0 °F 23.6 °F 32.0 °F 100% 30.12 in 4.0 mi NW 10.4 mph 19.6 mph N/A Rain Light Rain
3:35 AM 32.0 °F 24.8 °F 32.0 °F 100% 30.12 in 4.0 mi WNW 8.1 mph - 0.03 in Rain Light Rain
3:55 AM 32.0 °F 23.6 °F 32.0 °F 100% 30.11 in 4.0 mi NW 10.4 mph - 0.07 in Rain Light Rain
4:15 AM 32.0 °F 24.2 °F 32.0 °F 100% 30.12 in 3.0 mi NW 9.2 mph - 0.03 in Rain Light Rain
4:35 AM 32.0 °F 23.0 °F 32.0 °F 100% 30.11 in 5.0 mi NW 11.5 mph - 0.05 in Rain Light Rain
4:55 AM 32.0 °F 24.8 °F 32.0 °F 100% 30.10 in 5.0 mi NW 8.1 mph - 0.05 in Rain Light Rain
5:15 AM 32.0 °F 24.8 °F 32.0 °F 100% 30.10 in 5.0 mi NW 8.1 mph - N/A Rain Light Rain
5:35 AM 32.0 °F 23.0 °F 32.0 °F 100% 30.07 in 3.0 mi NW 11.5 mph 16.1 mph 0.04 in Rain Light Rain
5:55 AM 32.0 °F 25.6 °F 32.0 °F 100% 30.09 in 7.0 mi WNW 6.9 mph - 0.05 in Rain Light Rain
6:15 AM 32.0 °F 23.6 °F 32.0 °F 100% 30.07 in 6.0 mi NW 10.4 mph 16.1 mph N/A Rain Light Rain
6:35 AM 32.0 °F 23.6 °F 32.0 °F 100% 30.08 in 3.0 mi NW 10.4 mph 16.1 mph 0.05 in Rain Rain
6:49 AM 32.0 °F 23.6 °F 32.0 °F 100% 30.07 in 3.0 mi NW 10.4 mph 18.4 mph N/A Rain Rain
7:46 AM 32.0 °F 24.2 °F 32.0 °F 100% 30.06 in 4.0 mi NW 9.2 mph - N/A Rain Light Rain
8:45 AM 32.0 °F 24.2 °F 32.0 °F 100% 30.06 in 3.0 mi NW 9.2 mph 16.1 mph N/A Rain Rain
9:03 AM 32.0 °F 22.5 °F 32.0 °F 100% 30.04 in 2.5 mi NW 12.7 mph 17.3 mph N/A Snow Light Snow
9:45 AM 32.0 °F 23.6 °F 32.0 °F 100% 30.05 in 2.0 mi NW 10.4 mph - N/A Snow Light Snow
10:18 AM 32.0 °F 22.5 °F 32.0 °F 100% 30.03 in 9.0 mi NW 12.7 mph - N/A   Overcast
10:45 AM 32.0 °F 24.2 °F 32.0 °F 100% 30.04 in 1.8 mi WNW 9.2 mph 16.1 mph N/A Snow Light Snow
11:47 AM 33.8 °F 24.3 °F 32.0 °F 93% 30.04 in 3.0 mi WNW 13.8 mph 24.2 mph N/A Snow Light Snow
12:52 PM 33.8 °F 25.3 °F 32.0 °F 93% 30.02 in 2.5 mi WNW 11.5 mph 18.4 mph N/A Rain Light Rain
1:51 PM 35.6 °F 27.1 °F 33.8 °F 93% 30.02 in 2.0 mi NW 12.7 mph 20.7 mph N/A Rain Light Rain
2:46 PM 35.6 °F 26.2 °F 32.0 °F 87% 30.01 in 3.0 mi NW 15.0 mph 26.5 mph N/A Rain Light Rain
3:45 PM 35.6 °F 29.2 °F 35.6 °F 100% 29.98 in 3.0 mi NNW 8.1 mph - N/A Rain Light Rain
4:52 PM 37.4 °F 29.8 °F 35.6 °F 93% 29.97 in 3.0 mi NW 11.5 mph 18.4 mph N/A Rain Light Rain
5:50 PM 37.4 °F 29.3 °F 35.6 °F 93% 29.97 in 4.0 mi NW 12.7 mph 19.6 mph N/A Rain Light Rain
6:52 PM 37.4 °F 29.8 °F 33.8 °F 87% 29.97 in 7.0 mi WNW 11.5 mph 19.6 mph N/A Rain Light Rain
7:55 PM 35.6 °F 27.5 °F 33.8 °F 93% 29.97 in 3.0 mi West 11.5 mph - N/A Rain Light Rain
8:46 PM 35.6 °F 29.2 °F 35.6 °F 100% 29.97 in 6.0 mi WNW 8.1 mph - N/A Rain Light Rain
9:15 PM 35.6 °F 32.8 °F 33.8 °F 93% 29.97 in 8.0 mi West 3.5 mph - N/A Rain Light Rain
9:35 PM 35.6 °F 31.7 °F 33.8 °F 93% 29.96 in 5.0 mi West 4.6 mph - N/A Rain Light Rain
9:55 PM 35.6 °F 30.7 °F 33.8 °F 93% 29.96 in 2.5 mi WNW 5.8 mph - 0.01 in Rain Light Rain
10:15 PM 35.6 °F 29.9 °F 33.8 °F 93% 29.95 in 6.0 mi WNW 6.9 mph - N/A Rain Light Rain
10:35 PM 35.6 °F 30.7 °F 33.8 °F 93% 29.95 in 10.0 mi WNW 5.8 mph - N/A Rain Light Rain
10:55 PM 35.6 °F 29.9 °F 33.8 °F 93% 29.94 in 3.0 mi NW 6.9 mph - 0.02 in Rain Light Rain
11:15 PM 35.6 °F - 33.8 °F 93% 29.93 in 3.0 mi Calm Calm - N/A Rain Light Rain
11:35 PM 33.8 °F 29.6 °F 32.0 °F 93% 29.92 in 4.0 mi NNW 4.6 mph - 0.02 in Rain Light Rain
11:55 PM 32.0 °F - 32.0 °F 100% 29.92 in 2.0 mi Calm Calm - 0.05 in Rain Light Rain